Weather History for Meridian, MS

Change the Weather History Date:

Wednesday, October 31, 2012

  Actual Average Record
Temperature  
Mean Temperature 57 °F 59 °F  
Max Temperature 74 °F 73 °F 87 °F (1950)
Min Temperature 39 °F 46 °F 28 °F (1993)
Degree Days  
Heating Degree Days 8 7  
Month to date heating degree days 120 117  
Since 1 July heating degree days 121 124  
Cooling Degree Days 0 1  
Month to date cooling degree days 44 90  
Year to date cooling degree days 2173 2013  
Growing Degree Days 6 (Base 50)    
Moisture  
Dew Point 46 °F    
Average Humidity 68    
Maximum Humidity 100    
Minimum Humidity 35    
Precipitation  
Precipitation 0.00 in 0.13 in 2.38 in (1979)
Month to date precipitation 2.61 3.76  
Year to date precipitation 51.95 46.15  
Sea Level Pressure  
Sea Level Pressure 29.98 in    
Wind  
Wind Speed 3 mph (WSW)    
Max Wind Speed 16 mph    
Max Gust Speed 22 mph    
Visibility 9 miles    
Events      
T = Trace of Precipitation, MM = Missing Value Source: NWS Daily Summary

Daily Weather History Graph

Daily Weather History Graph

Search for Another Location

Airport:

Trip Planner

Search our weather history database for the weather conditions in past years. The results will help you decide how hot, cold, wet, or windy it might be!

Date:

Astronomy

Oct. 31, 2012 Rise Set
Actual Time 7:11 AM CDT 6:05 PM CDT
Civil Twilight 6:46 AM CDT 6:30 PM CDT
Nautical Twilight 6:17 AM CDT 6:59 PM CDT
Astronomical Twilight 5:48 AM CDT 7:28 PM CDT
Moon 7:22 PM CDT (10/31) 8:46 AM CDT (10/31)
Length of Visible Light 11h 44m
Length of Day
10h 53m
Full, 97% of the Moon is Illuminated
Oct 31
Full
Nov 6
Last Quarter
Nov 13
New
Nov 20
First Quarter
Nov 28
Full

Hourly Weather History & Observations

Time (CDT) Temp. Windchill Dew Point Humidity Pressure Visibility Wind Dir Wind Speed Gust Speed Precip Events Conditions
12:58 AM 41.0 °F - 39.0 °F 93% 29.99 in 10.0 mi Calm Calm - N/A   Clear
1:58 AM 41.0 °F 39.0 °F 39.9 °F 96% 29.99 in 10.0 mi SSW 3.5 mph - N/A   Mostly Cloudy
2:58 AM 43.0 °F - 42.1 °F 97% 29.99 in 10.0 mi Calm Calm - N/A   Overcast
3:58 AM 43.0 °F 41.3 °F 39.9 °F 89% 29.98 in 10.0 mi SSW 3.5 mph - N/A   Mostly Cloudy
4:58 AM 42.1 °F 39.2 °F 39.9 °F 92% 29.99 in 10.0 mi SSW 4.6 mph - N/A   Clear
5:58 AM 39.9 °F 37.8 °F 39.0 °F 97% 29.99 in 10.0 mi SSW 3.5 mph - N/A   Clear
6:58 AM 39.0 °F 35.7 °F 37.9 °F 96% 30.00 in 10.0 mi SSW 4.6 mph - N/A   Clear
7:58 AM 41.0 °F 38.0 °F 39.9 °F 96% 30.02 in 10.0 mi SSW 4.6 mph - N/A   Clear
8:58 AM 48.9 °F - 44.1 °F 83% 30.02 in 10.0 mi Calm Calm - N/A   Clear
9:58 AM 57.9 °F - 43.0 °F 58% 30.01 in 10.0 mi WNW 5.8 mph - N/A   Clear
10:58 AM 66.0 °F - 45.0 °F 47% 30.01 in 10.0 mi Variable 4.6 mph - N/A   Clear
11:58 AM 68.0 °F - 46.0 °F 45% 29.99 in 10.0 mi WNW 11.5 mph 16.1 mph N/A   Partly Cloudy
12:58 PM 73.0 °F - 45.0 °F 37% 29.97 in 10.0 mi West 10.4 mph 21.9 mph N/A   Clear
1:58 PM 72.0 °F - 45.0 °F 38% 29.95 in 10.0 mi WNW 10.4 mph 19.6 mph N/A   Partly Cloudy
2:58 PM 69.8 °F - 46.4 °F 43% 29.94 in 10.0 mi West 4.6 mph - N/A   Overcast
3:58 PM 70.0 °F - 48.9 °F 47% 29.94 in 10.0 mi Variable 4.6 mph - N/A   Overcast
4:58 PM 69.1 °F - 52.0 °F 54% 29.94 in 10.0 mi Calm Calm - N/A   Scattered Clouds
5:58 PM 61.0 °F - 57.0 °F 87% 29.94 in 10.0 mi Calm Calm - N/A   Mostly Cloudy
6:58 PM 59.0 °F - 55.9 °F 90% 29.95 in 10.0 mi Calm Calm - N/A   Overcast
7:58 PM 55.9 °F - 55.0 °F 97% 29.96 in 10.0 mi Calm Calm - N/A   Mostly Cloudy
8:58 PM 55.9 °F - 54.0 °F 93% 29.98 in 10.0 mi Calm Calm - 0.01 in   Mostly Cloudy
9:58 PM 54.0 °F - 53.1 °F 97% 29.99 in 9.0 mi Calm Calm - N/A   Partly Cloudy
10:58 PM 51.1 °F - 51.1 °F 100% 29.99 in 3.0 mi Calm Calm - N/A   Clear
11:54 PM 48.2 °F - 46.4 °F 93% 30.00 in 5.0 mi Calm Calm - N/A   Partly Cloudy
11:58 PM 48.0 °F - 46.9 °F 96% 30.00 in 4.0 mi Calm Calm - N/A   Partly Cloudy